When you browse on this site, cookies collect data to enhance your experience and personalize the content and advertising you see.
Visit our Privacy Policy to learn more. By continuing to use the site, you agree to this use of cookies and data.
  • In Hungary
  • List of Countries
  • For 7 days
  • Water Temperature
  • Weather Map
  • News
  • Weather Widgets
  • user-avatar
    Login

    Hourly Weather Colwyn Bay

    Today, 22 August, Thursday

    Time Temperature Precipitation Wind Pressure Humidity
    00:00 +13°C° 0.8 mm 8 mps 762 mmHg 90%
    01:00 +15°C° 0.7 mm 8 mps 761 mmHg 92%
    02:00 +15°C° 0.7 mm 7 mps 761 mmHg 93%
    03:00 +15°C° 0.7 mm 7 mps 761 mmHg 95%
    04:00 +15°C° 0.3 mm 7 mps 761 mmHg 95%
    05:00 +15°C° 0.3 mm 6 mps 761 mmHg 95%
    06:00 +15°C° 0.3 mm 6 mps 761 mmHg 96%
    07:00 +16°C° 0.1 mm 6 mps 762 mmHg 93%
    08:00 +16°C° 0.1 mm 7 mps 762 mmHg 90%
    09:00 +17°C° 0.1 mm 7 mps 762 mmHg 87%
    10:00 +18°C° 0 mm 7 mps 762 mmHg 84%
    11:00 +18°C° 0 mm 7 mps 762 mmHg 81%
    12:00 +20°C° 0 mm 7 mps 762 mmHg 78%
    13:00 +20°C° 0 mm 8 mps 762 mmHg 79%
    14:00 +18°C° 0 mm 8 mps 762 mmHg 80%
    15:00 +18°C° 0 mm 9 mps 762 mmHg 81%
    16:00 +18°C° 0 mm 8 mps 762 mmHg 82%
    17:00 +17°C° 0 mm 8 mps 762 mmHg 84%
    18:00 +17°C° 0 mm 7 mps 762 mmHg 86%
    19:00 +17°C° 0 mm 7 mps 762 mmHg 88%
    20:00 +16°C° 0 mm 6 mps 763 mmHg 91%
    21:00 +16°C° 0 mm 6 mps 763 mmHg 93%
    22:00 +16°C° 0 mm 5 mps 763 mmHg 93%
    23:00 +16°C° 0 mm 5 mps 763 mmHg 93%

    Tomorrow, 23 August, Friday

    Time Temperature Precipitation Wind Pressure Humidity
    00:00 +16°C° 0 mm 5 mps 763 mmHg 93%
    01:00 +16°C° 0 mm 5 mps 763 mmHg 94%
    02:00 +17°C° 0 mm 4 mps 763 mmHg 94%
    03:00 +17°C° 0 mm 4 mps 763 mmHg 94%
    04:00 +17°C° 0 mm 4 mps 763 mmHg 95%
    05:00 +15°C° 0 mm 4 mps 763 mmHg 95%
    06:00 +15°C° 0 mm 4 mps 763 mmHg 96%
    07:00 +17°C° 0 mm 4 mps 764 mmHg 90%
    08:00 +19°C° 0 mm 4 mps 764 mmHg 85%
    09:00 +20°C° 0 mm 4 mps 764 mmHg 80%
    10:00 +20°C° 0 mm 4 mps 764 mmHg 78%
    11:00 +21°C° 0 mm 3 mps 763 mmHg 76%
    12:00 +21°C° 0 mm 3 mps 763 mmHg 74%
    13:00 +22°C° 0 mm 3 mps 763 mmHg 74%
    14:00 +22°C° 0 mm 3 mps 763 mmHg 74%
    15:00 +22°C° 0 mm 3 mps 763 mmHg 74%
    16:00 +21°C° 0 mm 2 mps 762 mmHg 78%
    17:00 +21°C° 0 mm 2 mps 762 mmHg 82%
    18:00 +20°C° 0 mm 2 mps 762 mmHg 87%
    19:00 +19°C° 0 mm 2 mps 762 mmHg 89%
    20:00 +18°C° 0 mm 2 mps 762 mmHg 92%
    21:00 +17°C° 0 mm 2 mps 762 mmHg 95%
    22:00 +16°C° 0 mm 2 mps 762 mmHg 95%
    23:00 +16°C° 0 mm 2 mps 762 mmHg 95%

    Day after tomorrow, 24 August, Saturday

    Time Temperature Precipitation Wind Pressure Humidity
    00:00 +16°C° 0 mm 2 mps 761 mmHg 95%
    01:00 +15°C° 0 mm 2 mps 761 mmHg 93%
    02:00 +15°C° 0 mm 2 mps 761 mmHg 92%
    03:00 +15°C° 0 mm 2 mps 761 mmHg 91%
    04:00 +14°C° 0 mm 2 mps 761 mmHg 88%
    05:00 +14°C° 0 mm 2 mps 761 mmHg 86%
    06:00 +14°C° 0 mm 2 mps 760 mmHg 83%
    07:00 +17°C° 0 mm 2 mps 760 mmHg 75%
    08:00 +19°C° 0 mm 2 mps 760 mmHg 67%
    09:00 +21°C° 0 mm 2 mps 760 mmHg 60%
    10:00 +23°C° 0 mm 2 mps 760 mmHg 55%
    11:00 +24°C° 0 mm 2 mps 760 mmHg 51%
    12:00 +26°C° 0 mm 3 mps 760 mmHg 47%
    13:00 +26°C° 0 mm 2 mps 759 mmHg 49%
    14:00 +26°C° 0 mm 2 mps 759 mmHg 52%
    15:00 +26°C° 0 mm 2 mps 759 mmHg 54%
    16:00 +25°C° 0 mm 2 mps 759 mmHg 61%
    17:00 +24°C° 0 mm 2 mps 758 mmHg 68%
    18:00 +23°C° 0 mm 1 mps 758 mmHg 75%
    19:00 +21°C° 0 mm 2 mps 758 mmHg 78%
    20:00 +20°C° 0 mm 2 mps 759 mmHg 80%
    21:00 +19°C° 0 mm 2 mps 759 mmHg 83%
    22:00 +19°C° 0 mm 2 mps 759 mmHg 82%
    23:00 +19°C° 0 mm 2 mps 759 mmHg 82%

    25 August, Sunday

    Time Temperature Precipitation Wind Pressure Humidity
    00:00 +19°C° 0 mm 2 mps 759 mmHg 82%
    01:00 +19°C° 0 mm 2 mps 759 mmHg 81%
    02:00 +18°C° 0 mm 2 mps 758 mmHg 81%
    03:00 +19°C° 0 mm 1 mps 758 mmHg 80%
    04:00 +18°C° 0 mm 2 mps 758 mmHg 80%
    05:00 +18°C° 0 mm 2 mps 758 mmHg 79%
    06:00 +18°C° 0 mm 2 mps 758 mmHg 79%
    07:00 +20°C° 0 mm 2 mps 759 mmHg 73%
    08:00 +21°C° 0 mm 2 mps 759 mmHg 68%
    09:00 +24°C° 0 mm 2 mps 759 mmHg 62%
    10:00 +25°C° 0 mm 2 mps 759 mmHg 60%
    11:00 +26°C° 0 mm 3 mps 759 mmHg 57%
    12:00 +28°C° 0 mm 3 mps 759 mmHg 55%
    13:00 +28°C° 0 mm 3 mps 758 mmHg 57%
    14:00 +28°C° 0 mm 3 mps 758 mmHg 58%
    15:00 +28°C° 0 mm 3 mps 758 mmHg 60%
    16:00 +27°C° 0 mm 3 mps 758 mmHg 66%
    17:00 +26°C° 0 mm 2 mps 758 mmHg 72%
    18:00 +25°C° 0 mm 2 mps 758 mmHg 78%
    19:00 +23°C° 0 mm 2 mps 759 mmHg 82%
    20:00 +20°C° 0 mm 3 mps 759 mmHg 87%
    21:00 +19°C° 0 mm 3 mps 759 mmHg 91%
    22:00 +18°C° 0 mm 3 mps 760 mmHg 91%
    23:00 +17°C° 0 mm 3 mps 760 mmHg 92%

    26 August, Monday

    Time Temperature Precipitation Wind Pressure Humidity
    00:00 +16°C° 0 mm 3 mps 760 mmHg 93%
    01:00 +16°C° 0 mm 3 mps 760 mmHg 93%
    02:00 +14°C° 0 mm 3 mps 760 mmHg 94%
    03:00 +14°C° 0 mm 3 mps 761 mmHg 94%
    04:00 +14°C° 0 mm 3 mps 761 mmHg 94%
    05:00 +14°C° 0 mm 3 mps 761 mmHg 94%
    06:00 +15°C° 0 mm 2 mps 762 mmHg 94%
    07:00 +17°C° 0 mm 2 mps 762 mmHg 87%
    08:00 +19°C° 0 mm 2 mps 762 mmHg 81%
    09:00 +21°C° 0 mm 2 mps 763 mmHg 74%
    10:00 +23°C° 0 mm 2 mps 763 mmHg 70%
    11:00 +24°C° 0 mm 2 mps 763 mmHg 66%
    12:00 +25°C° 0 mm 2 mps 763 mmHg 62%
    13:00 +24°C° 0 mm 2 mps 763 mmHg 64%
    14:00 +24°C° 0 mm 2 mps 763 mmHg 66%
    15:00 +24°C° 0 mm 2 mps 762 mmHg 67%
    16:00 +23°C° 0 mm 2 mps 762 mmHg 72%
    17:00 +23°C° 0 mm 2 mps 762 mmHg 76%
    18:00 +22°C° 0 mm 1 mps 762 mmHg 81%
    19:00 +20°C° 0 mm 2 mps 762 mmHg 83%
    20:00 +18°C° 0 mm 2 mps 762 mmHg 84%
    21:00 +17°C° 0 mm 2 mps 763 mmHg 86%
    22:00 +17°C° 0 mm 2 mps 762 mmHg 86%
    23:00 +17°C° 0 mm 2 mps 762 mmHg 85%

    27 August, Tuesday

    Time Temperature Precipitation Wind Pressure Humidity
    00:00 +17°C° 0 mm 2 mps 762 mmHg 85%
    01:00 +16°C° 0 mm 2 mps 762 mmHg 85%
    02:00 +16°C° 0 mm 2 mps 761 mmHg 86%
    03:00 +16°C° 0 mm 2 mps 761 mmHg 86%
    04:00 +16°C° 0 mm 2 mps 761 mmHg 86%
    05:00 +16°C° 0 mm 2 mps 761 mmHg 87%
    06:00 +16°C° 0 mm 2 mps 761 mmHg 87%
    07:00 +20°C° 0 mm 1 mps 761 mmHg 82%
    08:00 +22°C° 0 mm 1 mps 760 mmHg 77%
    09:00 +24°C° 0 mm 1 mps 760 mmHg 71%
    10:00 +24°C° 0 mm 1 mps 760 mmHg 69%
    11:00 +25°C° 0 mm 1 mps 760 mmHg 67%
    12:00 +26°C° 0 mm 1 mps 760 mmHg 66%
    13:00 +25°C° 0 mm 1 mps 759 mmHg 66%
    14:00 +25°C° 0 mm 2 mps 758 mmHg 67%
    15:00 +25°C° 0 mm 2 mps 758 mmHg 68%
    16:00 +24°C° 0 mm 2 mps 758 mmHg 74%
    17:00 +21°C° 0 mm 2 mps 757 mmHg 79%
    18:00 +20°C° 0 mm 2 mps 757 mmHg 85%
    19:00 +19°C° 0 mm 2 mps 757 mmHg 88%
    20:00 +17°C° 0 mm 2 mps 757 mmHg 91%
    21:00 +16°C° 0 mm 2 mps 757 mmHg 94%
    22:00 +15°C° 0 mm 2 mps 757 mmHg 94%
    23:00 +15°C° 0 mm 2 mps 757 mmHg 94%
    Show more